Weather in Malaybalay

Philippines     8°09′50″N   125°07′47″E
temp.,
°C
wind,
m/s
gust,
m/s
humid.,
%
clouds,
%
prec.,
mm/h
press.,
hPa
HPBL,
m
25 may, wed
wed2523:00+18nnw119399 0.0 101512
02:00+18nnw1189100 0.0 101316
05:00+17n218598 0.0 101323
08:00+24ene126589 0.0 1013415
11:00+28ese2353100 0.0 10121636
14:00+25se1274100 1.2 1010913
17:00+22se0185100 0.1 101018
20:00+20nnw1194100 0.1 101218
26 may, thu
thu2623:00+18n1198100 0.0 101221
02:00+18n119876 0.0 101020
05:00+17n119734 0.0 101124
08:00+24ene1267100 0.0 1012632
11:00+24ese1179100 0.8 1010557
14:00+20ne0097100 3.4 100922
17:00+20e1198100 1.4 100924
20:00+19wsw1199100 2.9 101131
27 may, fri
fri2723:00+19wsw11100100 0.4 101171
02:00+18w1198100 0.6 101034
05:00+17wnw1198100 0.0 101130
08:00+22w1278100 0.0 1011521
11:00+23sw128593 1.5 1010757
14:00+21w129575 6.3 1009151
17:00+20wnw1197100 2.0 100937
20:00+18wnw119897 2.1 101216
28 may, sat
sat2823:00+18wnw119887 0.0 101213
02:00+17wnw1198100 0.0 101117
05:00+17nw119896 0.0 101118
08:00+22sw1180100 0.0 1012318
11:00+28ssw225052 0.0 10101657
14:00+24e118899 1.1 1009128
17:00+21n0095100 2.3 100912
20:00+20wnw119893 4.4 101218
29 may, sun
sun2923:00+20wsw1198100 0.6 101221
02:00+19wsw1199100 1.1 101148
05:00+19sw12100100 0.0 1012122
08:00+20ssw1398100 0.4 1013234
11:00+25ssw2272100 0.8 1011970
14:00+22sw1292100 4.9 1009473
17:00+21w1298100 4.0 101072
20:00+19wnw1299100 6.8 101269